Saint Bonnet de Bellac- Haute Vienne - France
Donnes mto: samedi, 21/07/2012
Date Horaire Temp. E. Hum. E. P.atmo. Pluie Vent Direction Direction Ensoleilleme Solaire P. de rose Temp au vent Rafales
21/07/2012 00:00 13,8 C 87 % 1019,7 hPa 0,0 mm 0,0 km/h (0 Bft) E 90 0 min 0 W/m 11,7 C 13,8 C 0,0 km/h (0 Bft)
21/07/2012 00:10 13,6 C 88 % 1019,7 hPa 0,0 mm 0,0 km/h (0 Bft) E 90 0 min 0 W/m 11,6 C 13,6 C 0,0 km/h (0 Bft)
21/07/2012 00:20 13,4 C 87 % 1019,7 hPa 0,0 mm 0,0 km/h (0 Bft) E 90 0 min 0 W/m 11,3 C 13,4 C 0,0 km/h (0 Bft)
21/07/2012 00:30 13,1 C 88 % 1019,8 hPa 0,0 mm 0,0 km/h (0 Bft) E 90 0 min 0 W/m 11,2 C 13,1 C 0,0 km/h (0 Bft)
21/07/2012 00:40 12,9 C 88 % 1019,7 hPa 0,0 mm 0,0 km/h (0 Bft) E 90 0 min 0 W/m 11,0 C 12,9 C 0,0 km/h (0 Bft)
21/07/2012 00:50 12,8 C 88 % 1019,8 hPa 0,0 mm 0,0 km/h (0 Bft) E 90 0 min 0 W/m 10,9 C 12,8 C 0,0 km/h (0 Bft)
21/07/2012 01:00 12,6 C 88 % 1019,7 hPa 0,0 mm 0,0 km/h (0 Bft) E 90 0 min 0 W/m 10,7 C 12,6 C 0,0 km/h (0 Bft)
21/07/2012 01:10 12,4 C 89 % 1019,7 hPa 0,0 mm 0,0 km/h (0 Bft) E 90 0 min 0 W/m 10,6 C 12,4 C 0,0 km/h (0 Bft)
21/07/2012 01:20 12,2 C 89 % 1019,7 hPa 0,0 mm 0,0 km/h (0 Bft) E 90 0 min 0 W/m 10,4 C 12,2 C 0,0 km/h (0 Bft)
21/07/2012 01:30 12,1 C 89 % 1019,6 hPa 0,0 mm 0,0 km/h (0 Bft) E 90 0 min 0 W/m 10,3 C 12,1 C 0,0 km/h (0 Bft)
21/07/2012 01:40 11,9 C 89 % 1019,5 hPa 0,0 mm 0,0 km/h (0 Bft) E 90 0 min 0 W/m 10,1 C 11,9 C 0,0 km/h (0 Bft)
21/07/2012 01:50 11,8 C 89 % 1019,6 hPa 0,0 mm 0,0 km/h (0 Bft) E 90 0 min 0 W/m 10,0 C 11,8 C 0,0 km/h (0 Bft)
21/07/2012 02:00 11,8 C 90 % 1019,5 hPa 0,0 mm 0,0 km/h (0 Bft) E 90 0 min 0 W/m 10,2 C 11,8 C 0,0 km/h (0 Bft)
21/07/2012 02:10 11,8 C 90 % 1019,5 hPa 0,0 mm 0,0 km/h (0 Bft) E 90 0 min 0 W/m 10,2 C 11,8 C 0,0 km/h (0 Bft)
21/07/2012 02:20 11,8 C 90 % 1019,5 hPa 0,0 mm 0,0 km/h (0 Bft) E 90 0 min 0 W/m 10,2 C 11,8 C 0,0 km/h (0 Bft)
21/07/2012 02:30 11,8 C 90 % 1019,5 hPa 0,0 mm 0,0 km/h (0 Bft) E 90 0 min 0 W/m 10,2 C 11,8 C 0,0 km/h (0 Bft)
21/07/2012 02:40 11,8 C 90 % 1019,5 hPa 0,0 mm 0,0 km/h (0 Bft) E 90 0 min 0 W/m 10,2 C 11,8 C 0,0 km/h (0 Bft)
21/07/2012 02:50 11,8 C 90 % 1019,5 hPa 0,0 mm 0,0 km/h (0 Bft) E 90 0 min 0 W/m 10,2 C 11,8 C 0,0 km/h (0 Bft)
21/07/2012 03:02 11,8 C 90 % 1019,5 hPa 0,0 mm 0,0 km/h (0 Bft) E 90 0 min 0 W/m 10,2 C 11,8 C 0,0 km/h (0 Bft)
21/07/2012 03:10 11,7 C 90 % 1019,5 hPa 0,0 mm 0,0 km/h (0 Bft) E 90 0 min 0 W/m 10,1 C 11,7 C 0,0 km/h (0 Bft)
21/07/2012 03:20 11,6 C 90 % 1019,4 hPa 0,0 mm 0,0 km/h (0 Bft) E 90 0 min 0 W/m 10,0 C 11,6 C 0,0 km/h (0 Bft)
21/07/2012 03:30 11,4 C 90 % 1019,4 hPa 0,0 mm 0,0 km/h (0 Bft) E 90 0 min 0 W/m 9,8 C 11,4 C 0,0 km/h (0 Bft)
21/07/2012 03:40 11,3 C 90 % 1019,5 hPa 0,0 mm 0,0 km/h (0 Bft) E 90 0 min 0 W/m 9,7 C 11,3 C 0,0 km/h (0 Bft)
21/07/2012 03:50 11,0 C 90 % 1019,4 hPa 0,0 mm 0,0 km/h (0 Bft) E 90 0 min 0 W/m 9,4 C 11,0 C 0,0 km/h (0 Bft)
21/07/2012 04:00 10,8 C 90 % 1019,4 hPa 0,0 mm 0,0 km/h (0 Bft) E 90 0 min 0 W/m 9,2 C 10,8 C 0,0 km/h (0 Bft)
21/07/2012 04:10 10,8 C 90 % 1019,5 hPa 0,0 mm 0,0 km/h (0 Bft) E-SE 112 0 min 0 W/m 9,2 C 10,8 C 0,0 km/h (0 Bft)
21/07/2012 04:20 10,8 C 91 % 1019,5 hPa 0,0 mm 0,0 km/h (0 Bft) E-SE 112 0 min 0 W/m 9,4 C 10,8 C 0,0 km/h (0 Bft)
21/07/2012 04:30 10,6 C 91 % 1019,5 hPa 0,0 mm 0,0 km/h (0 Bft) E-SE 112 0 min 0 W/m 9,2 C 10,6 C 0,0 km/h (0 Bft)
21/07/2012 04:40 10,6 C 91 % 1019,6 hPa 0,0 mm 0,0 km/h (0 Bft) E-SE 112 0 min 0 W/m 9,2 C 10,6 C 0,0 km/h (0 Bft)
21/07/2012 04:50 10,5 C 91 % 1019,6 hPa 0,0 mm 0,0 km/h (0 Bft) E-SE 112 0 min 0 W/m 9,1 C 10,5 C 0,0 km/h (0 Bft)
21/07/2012 05:00 10,4 C 91 % 1019,7 hPa 0,0 mm 0,0 km/h (0 Bft) E-SE 112 0 min 0 W/m 9,0 C 10,4 C 0,0 km/h (0 Bft)
21/07/2012 05:10 10,4 C 91 % 1019,8 hPa 0,0 mm 0,0 km/h (0 Bft) E-SE 112 0 min 0 W/m 9,0 C 10,4 C 0,0 km/h (0 Bft)
21/07/2012 05:20 10,5 C 91 % 1019,7 hPa 0,0 mm 0,0 km/h (0 Bft) E-SE 112 0 min 0 W/m 9,1 C 10,5 C 0,0 km/h (0 Bft)
21/07/2012 05:30 10,5 C 91 % 1019,7 hPa 0,0 mm 0,0 km/h (0 Bft) E 90 0 min 0 W/m 9,1 C 10,5 C 0,0 km/h (0 Bft)
21/07/2012 05:40 10,5 C 91 % 1019,7 hPa 0,0 mm 0,0 km/h (0 Bft) E-SE 112 0 min 0 W/m 9,1 C 10,5 C 0,0 km/h (0 Bft)
21/07/2012 05:50 10,4 C 91 % 1019,7 hPa 0,0 mm 0,0 km/h (0 Bft) E-SE 112 0 min 0 W/m 9,0 C 10,4 C 0,0 km/h (0 Bft)
21/07/2012 06:00 10,3 C 91 % 1019,7 hPa 0,0 mm 0,0 km/h (0 Bft) E-SE 112 0 min 0 W/m 8,9 C 10,3 C 0,0 km/h (0 Bft)
21/07/2012 06:10 10,1 C 91 % 1019,7 hPa 0,0 mm 0,0 km/h (0 Bft) E-SE 112 0 min 0 W/m 8,7 C 10,1 C 0,0 km/h (0 Bft)
21/07/2012 06:20 9,8 C 91 % 1019,8 hPa 0,0 mm 0,0 km/h (0 Bft) E-SE 112 0 min 0 W/m 8,4 C 9,8 C 0,0 km/h (0 Bft)
21/07/2012 06:30 9,7 C 92 % 1019,7 hPa 0,0 mm 0,0 km/h (0 Bft) E-SE 112 0 min 0 W/m 8,5 C 9,7 C 0,0 km/h (0 Bft)
21/07/2012 06:40 9,6 C 91 % 1019,8 hPa 0,0 mm 0,0 km/h (0 Bft) SE 135 0 min 0 W/m 8,2 C 9,6 C 0,0 km/h (0 Bft)
21/07/2012 06:50 9,6 C 91 % 1019,9 hPa 0,0 mm 0,0 km/h (0 Bft) E 90 0 min 0 W/m 8,2 C 9,6 C 0,0 km/h (0 Bft)
21/07/2012 07:00 9,6 C 91 % 1020,0 hPa 0,0 mm 0,0 km/h (0 Bft) E-SE 112 0 min 0 W/m 8,2 C 9,6 C 0,0 km/h (0 Bft)
21/07/2012 07:10 9,6 C 91 % 1020,0 hPa 0,0 mm 0,0 km/h (0 Bft) E 90 0 min 0 W/m 8,2 C 9,6 C 0,0 km/h (0 Bft)
21/07/2012 07:20 9,7 C 91 % 1020,0 hPa 0,0 mm 0,0 km/h (0 Bft) E-SE 112 0 min 0 W/m 8,3 C 9,7 C 0,0 km/h (0 Bft)
21/07/2012 07:30 9,8 C 92 % 1020,2 hPa 0,0 mm 0,0 km/h (0 Bft) E 90 0 min 0 W/m 8,6 C 9,8 C 0,0 km/h (0 Bft)
21/07/2012 07:40 9,9 C 93 % 1020,4 hPa 0,0 mm 0,0 km/h (0 Bft) E 90 0 min 0 W/m 8,8 C 9,9 C 0,0 km/h (0 Bft)
21/07/2012 07:50 10,2 C 93 % 1020,5 hPa 0,0 mm 0,0 km/h (0 Bft) E 90 0 min 0 W/m 9,1 C 10,2 C 0,0 km/h (0 Bft)
21/07/2012 08:00 10,4 C 93 % 1020,6 hPa 0,0 mm 0,0 km/h (0 Bft) E 90 0 min 0 W/m 9,3 C 10,4 C 0,0 km/h (0 Bft)
21/07/2012 08:10 10,8 C 93 % 1020,6 hPa 0,0 mm 0,0 km/h (0 Bft) E 90 0 min 0 W/m 9,7 C 10,8 C 0,0 km/h (0 Bft)
21/07/2012 08:20 10,9 C 93 % 1020,8 hPa 0,0 mm 0,0 km/h (0 Bft) E 90 0 min 0 W/m 9,8 C 10,9 C 0,0 km/h (0 Bft)
21/07/2012 08:30 11,3 C 93 % 1020,8 hPa 0,0 mm 0,0 km/h (0 Bft) E 90 0 min 0 W/m 10,2 C 11,3 C 0,0 km/h (0 Bft)
21/07/2012 08:40 11,5 C 92 % 1020,9 hPa 0,0 mm 0,0 km/h (0 Bft) E-SE 112 0 min 0 W/m 10,2 C 11,5 C 0,0 km/h (0 Bft)
21/07/2012 08:50 11,6 C 92 % 1020,9 hPa 0,0 mm 0,0 km/h (0 Bft) E-SE 112 0 min 0 W/m 10,3 C 11,6 C 0,0 km/h (0 Bft)
21/07/2012 09:00 12,1 C 93 % 1021,1 hPa 0,0 mm 0,0 km/h (0 Bft) E-NE 67 0 min 0 W/m 11,0 C 12,1 C 0,0 km/h (0 Bft)
21/07/2012 09:10 12,5 C 93 % 1021,2 hPa 0,0 mm 0,4 km/h (0 Bft) E-NE 67 0 min 0 W/m 11,4 C 12,5 C 0,4 km/h (0 Bft)
21/07/2012 09:20 13,1 C 93 % 1021,2 hPa 0,0 mm 0,0 km/h (0 Bft) SE 135 0 min 0 W/m 12,0 C 13,1 C 0,0 km/h (0 Bft)
21/07/2012 09:30 13,8 C 94 % 1021,3 hPa 0,0 mm 0,4 km/h (0 Bft) SE 135 0 min 0 W/m 12,9 C 13,8 C 0,4 km/h (0 Bft)
21/07/2012 09:40 14,4 C 94 % 1021,5 hPa 0,0 mm 2,5 km/h (1 Bft) E-SE 112 0 min 0 W/m 13,4 C 14,4 C 4,3 km/h (1 Bft)
21/07/2012 09:50 15,2 C 94 % 1021,5 hPa 0,0 mm 0,0 km/h (0 Bft) E 90 0 min 0 W/m 14,2 C 15,2 C 0,0 km/h (0 Bft)
21/07/2012 10:00 15,8 C 94 % 1021,5 hPa 0,0 mm 3,2 km/h (1 Bft) NE 45 0 min 0 W/m 14,8 C 15,8 C 7,2 km/h (2 Bft)
21/07/2012 10:10 16,3 C 92 % 1021,6 hPa 0,1 mm 0,7 km/h (0 Bft) SE 135 0 min 0 W/m 15,0 C 16,3 C 4,3 km/h (1 Bft)
21/07/2012 10:20 17,0 C 91 % 1021,7 hPa 0,0 mm 1,8 km/h (1 Bft) E 90 0 min 0 W/m 15,5 C 17,0 C 6,5 km/h (2 Bft)
21/07/2012 10:30 17,6 C 86 % 1021,6 hPa 0,0 mm 4,3 km/h (1 Bft) S-SE 157 0 min 0 W/m 15,2 C 17,6 C 7,9 km/h (2 Bft)
21/07/2012 10:40 18,3 C 82 % 1021,6 hPa 0,0 mm 2,5 km/h (1 Bft) E 90 0 min 0 W/m 15,2 C 18,3 C 6,1 km/h (2 Bft)
21/07/2012 10:50 18,9 C 77 % 1021,6 hPa 0,0 mm 4,7 km/h (1 Bft) E-SE 112 0 min 0 W/m 14,8 C 18,9 C 7,2 km/h (2 Bft)
21/07/2012 11:00 19,5 C 74 % 1021,6 hPa 0,0 mm 1,4 km/h (1 Bft) E-NE 67 0 min 0 W/m 14,7 C 19,5 C 4,3 km/h (1 Bft)
21/07/2012 11:10 20,2 C 71 % 1021,6 hPa 0,0 mm 5,8 km/h (2 Bft) SE 135 0 min 0 W/m 14,8 C 20,2 C 5,8 km/h (2 Bft)
21/07/2012 11:20 20,4 C 70 % 1021,5 hPa 0,0 mm 3,2 km/h (1 Bft) E-SE 112 0 min 0 W/m 14,7 C 20,4 C 7,6 km/h (2 Bft)
21/07/2012 11:30 21,1 C 68 % 1021,7 hPa 0,0 mm 2,9 km/h (1 Bft) NE 45 0 min 0 W/m 15,0 C 21,1 C 8,3 km/h (2 Bft)
21/07/2012 11:40 21,7 C 65 % 1021,7 hPa 0,0 mm 5,0 km/h (1 Bft) N-NE 22 0 min 0 W/m 14,8 C 21,7 C 10,1 km/h (2 Bft)
21/07/2012 11:50 21,9 C 63 % 1021,8 hPa 0,0 mm 3,2 km/h (1 Bft) NE 45 0 min 0 W/m 14,5 C 21,9 C 4,0 km/h (1 Bft)
21/07/2012 12:00 22,5 C 61 % 1021,7 hPa 0,0 mm 1,1 km/h (1 Bft) E-SE 112 0 min 0 W/m 14,6 C 22,5 C 4,3 km/h (1 Bft)
21/07/2012 12:10 22,6 C 59 % 1021,7 hPa 0,0 mm 0,4 km/h (0 Bft) N-NO 337 0 min 0 W/m 14,2 C 22,6 C 3,2 km/h (1 Bft)
21/07/2012 12:20 22,8 C 58 % 1021,7 hPa 0,0 mm 3,2 km/h (1 Bft) NE 45 0 min 0 W/m 14,1 C 22,8 C 3,2 km/h (1 Bft)
21/07/2012 12:30 23,0 C 58 % 1021,8 hPa 0,0 mm 9,0 km/h (2 Bft) E 90 0 min 0 W/m 14,3 C 23,0 C 9,7 km/h (2 Bft)
21/07/2012 12:40 22,9 C 56 % 1021,7 hPa 0,0 mm 1,8 km/h (1 Bft) NE 45 0 min 0 W/m 13,6 C 22,9 C 4,3 km/h (1 Bft)
21/07/2012 12:50 23,2 C 56 % 1021,7 hPa 0,0 mm 4,3 km/h (1 Bft) N-NE 22 0 min 0 W/m 13,9 C 23,2 C 9,4 km/h (2 Bft)
21/07/2012 13:00 23,4 C 55 % 1021,8 hPa 0,0 mm 0,7 km/h (0 Bft) E 90 0 min 0 W/m 13,8 C 23,4 C 3,2 km/h (1 Bft)
21/07/2012 13:10 23,6 C 57 % 1021,8 hPa 0,0 mm 4,7 km/h (1 Bft) NO 315 0 min 0 W/m 14,6 C 23,6 C 8,6 km/h (2 Bft)
21/07/2012 13:20 23,8 C 53 % 1021,8 hPa 0,0 mm 3,2 km/h (1 Bft) N-NE 22 0 min 0 W/m 13,6 C 23,8 C 4,3 km/h (1 Bft)
21/07/2012 13:30 23,8 C 53 % 1021,8 hPa 0,0 mm 0,0 km/h (0 Bft) E-NE 67 0 min 0 W/m 13,6 C 23,8 C 3,6 km/h (1 Bft)
21/07/2012 13:40 23,8 C 50 % 1021,8 hPa 0,0 mm 0,0 km/h (0 Bft) N-NO 337 0 min 0 W/m 12,7 C 23,8 C 0,0 km/h (0 Bft)
21/07/2012 13:50 23,8 C 52 % 1021,9 hPa 0,0 mm 4,3 km/h (1 Bft) NO 315 0 min 0 W/m 13,3 C 23,8 C 10,1 km/h (2 Bft)
21/07/2012 14:00 23,5 C 52 % 1021,8 hPa 0,0 mm 2,2 km/h (1 Bft) N 360 0 min 0 W/m 13,1 C 23,5 C 4,3 km/h (1 Bft)
21/07/2012 14:10 23,7 C 50 % 1021,8 hPa 0,0 mm 1,1 km/h (1 Bft) N-NE 22 0 min 0 W/m 12,6 C 23,7 C 4,3 km/h (1 Bft)
21/07/2012 14:20 23,9 C 50 % 1021,6 hPa 0,0 mm 1,1 km/h (1 Bft) E-NE 67 0 min 0 W/m 12,8 C 23,9 C 4,0 km/h (1 Bft)
21/07/2012 14:30 24,1 C 49 % 1021,7 hPa 0,0 mm 4,7 km/h (1 Bft) E 90 0 min 0 W/m 12,7 C 24,1 C 9,0 km/h (2 Bft)
21/07/2012 14:40 24,1 C 47 % 1021,7 hPa 0,0 mm 8,3 km/h (2 Bft) N 360 0 min 0 W/m 12,1 C 24,1 C 12,2 km/h (2 Bft)
21/07/2012 14:50 24,1 C 48 % 1021,7 hPa 0,0 mm 3,2 km/h (1 Bft) NE 45 0 min 0 W/m 12,4 C 24,1 C 7,2 km/h (2 Bft)
21/07/2012 15:00 24,2 C 49 % 1021,8 hPa 0,0 mm 6,1 km/h (2 Bft) N-NE 22 0 min 0 W/m 12,8 C 24,2 C 14,8 km/h (3 Bft)
21/07/2012 15:10 24,4 C 48 % 1021,8 hPa 0,0 mm 1,1 km/h (1 Bft) N 360 0 min 0 W/m 12,7 C 24,4 C 3,2 km/h (1 Bft)
21/07/2012 15:20 24,3 C 48 % 1021,8 hPa 0,0 mm 3,6 km/h (1 Bft) N-NE 22 0 min 0 W/m 12,6 C 24,3 C 6,1 km/h (2 Bft)
21/07/2012 15:30 24,3 C 45 % 1021,7 hPa 0,0 mm 4,7 km/h (1 Bft) N-NE 22 0 min 0 W/m 11,6 C 24,3 C 7,2 km/h (2 Bft)
21/07/2012 15:40 24,3 C 47 % 1021,8 hPa 0,0 mm 3,6 km/h (1 Bft) E-NE 67 0 min 0 W/m 12,3 C 24,3 C 9,0 km/h (2 Bft)
21/07/2012 15:50 24,3 C 46 % 1021,9 hPa 0,0 mm 4,0 km/h (1 Bft) N 360 0 min 0 W/m 11,9 C 24,3 C 4,0 km/h (1 Bft)
21/07/2012 16:00 24,3 C 45 % 1021,9 hPa 0,0 mm 6,5 km/h (2 Bft) E 90 0 min 0 W/m 11,6 C 24,3 C 9,0 km/h (2 Bft)
21/07/2012 16:10 24,3 C 45 % 1022,0 hPa 0,0 mm 3,6 km/h (1 Bft) NE 45 0 min 0 W/m 11,6 C 24,3 C 6,1 km/h (2 Bft)
21/07/2012 16:20 24,3 C 46 % 1022,1 hPa 0,0 mm 1,8 km/h (1 Bft) N-NO 337 0 min 0 W/m 11,9 C 24,3 C 2,9 km/h (1 Bft)
21/07/2012 16:30 24,6 C 45 % 1022,1 hPa 0,0 mm 4,7 km/h (1 Bft) N 360 0 min 0 W/m 11,9 C 24,6 C 9,4 km/h (2 Bft)
21/07/2012 16:40 24,5 C 46 % 1022,0 hPa 0,0 mm 2,9 km/h (1 Bft) N-NE 22 0 min 0 W/m 12,1 C 24,5 C 6,5 km/h (2 Bft)
21/07/2012 16:50 24,7 C 45 % 1022,0 hPa 0,0 mm 2,9 km/h (1 Bft) NO 315 0 min 0 W/m 12,0 C 24,7 C 3,6 km/h (1 Bft)
21/07/2012 17:00 24,9 C 43 % 1022,0 hPa 0,0 mm 6,1 km/h (2 Bft) N 360 0 min 0 W/m 11,4 C 24,9 C 10,4 km/h (2 Bft)
21/07/2012 17:10 24,9 C 43 % 1022,1 hPa 0,0 mm 2,5 km/h (1 Bft) N-NE 22 0 min 0 W/m 11,4 C 24,9 C 4,0 km/h (1 Bft)
21/07/2012 17:20 24,9 C 43 % 1022,1 hPa 0,0 mm 1,1 km/h (1 Bft) N-NE 22 0 min 0 W/m 11,4 C 24,9 C 3,6 km/h (1 Bft)
21/07/2012 17:30 25,1 C 43 % 1022,0 hPa 0,0 mm 1,4 km/h (1 Bft) N-NE 22 0 min 0 W/m 11,6 C 25,1 C 1,4 km/h (1 Bft)
21/07/2012 17:40 25,1 C 42 % 1022,0 hPa 0,0 mm 2,2 km/h (1 Bft) NE 45 0 min 0 W/m 11,3 C 25,1 C 3,6 km/h (1 Bft)
21/07/2012 17:50 25,1 C 41 % 1022,0 hPa 0,0 mm 10,1 km/h (2 Bft) N-NE 22 0 min 0 W/m 10,9 C 25,1 C 10,1 km/h (2 Bft)
21/07/2012 18:00 25,3 C 42 % 1022,0 hPa 0,0 mm 5,0 km/h (1 Bft) NE 45 0 min 0 W/m 11,5 C 25,3 C 11,2 km/h (2 Bft)
21/07/2012 18:10 25,1 C 42 % 1022,0 hPa 0,0 mm 4,0 km/h (1 Bft) N-NE 22 0 min 0 W/m 11,3 C 25,1 C 7,6 km/h (2 Bft)
21/07/2012 18:20 24,9 C 42 % 1022,1 hPa 0,0 mm 4,3 km/h (1 Bft) N 360 0 min 0 W/m 11,1 C 24,9 C 7,6 km/h (2 Bft)
21/07/2012 18:30 24,8 C 43 % 1022,0 hPa 0,0 mm 4,7 km/h (1 Bft) N-NE 22 0 min 0 W/m 11,4 C 24,8 C 9,7 km/h (2 Bft)
21/07/2012 18:40 24,6 C 43 % 1022,0 hPa 0,0 mm 5,8 km/h (2 Bft) E-NE 67 0 min 0 W/m 11,2 C 24,6 C 5,8 km/h (2 Bft)
21/07/2012 18:50 24,6 C 43 % 1022,1 hPa 0,0 mm 5,0 km/h (1 Bft) N 360 0 min 0 W/m 11,2 C 24,6 C 11,5 km/h (2 Bft)
21/07/2012 19:00 24,3 C 44 % 1022,0 hPa 0,0 mm 2,2 km/h (1 Bft) E-NE 67 0 min 0 W/m 11,3 C 24,3 C 6,1 km/h (2 Bft)
21/07/2012 19:10 24,1 C 45 % 1022,2 hPa 0,0 mm 2,9 km/h (1 Bft) N-NE 22 0 min 0 W/m 11,4 C 24,1 C 6,5 km/h (2 Bft)
21/07/2012 19:20 23,9 C 45 % 1022,1 hPa 0,0 mm 1,4 km/h (1 Bft) N-NE 22 0 min 0 W/m 11,2 C 23,9 C 4,0 km/h (1 Bft)
21/07/2012 19:30 23,6 C 45 % 1022,0 hPa 0,0 mm 0,0 km/h (0 Bft) NE 45 0 min 0 W/m 11,0 C 23,6 C 0,0 km/h (0 Bft)
21/07/2012 19:40 23,4 C 46 % 1022,1 hPa 0,0 mm 0,0 km/h (0 Bft) NE 45 0 min 0 W/m 11,1 C 23,4 C 0,0 km/h (0 Bft)
21/07/2012 19:50 23,1 C 48 % 1022,0 hPa 0,0 mm 0,0 km/h (0 Bft) E-NE 67 0 min 0 W/m 11,5 C 23,1 C 0,0 km/h (0 Bft)
21/07/2012 20:00 23,0 C 48 % 1022,0 hPa 0,0 mm 4,7 km/h (1 Bft) NE 45 0 min 0 W/m 11,4 C 23,0 C 4,7 km/h (1 Bft)
21/07/2012 20:10 22,9 C 47 % 1022,1 hPa 0,0 mm 0,4 km/h (0 Bft) N-NE 22 0 min 0 W/m 11,0 C 22,9 C 0,4 km/h (0 Bft)
21/07/2012 20:20 22,5 C 48 % 1022,1 hPa 0,0 mm 0,7 km/h (0 Bft) NE 45 0 min 0 W/m 10,9 C 22,5 C 3,6 km/h (1 Bft)
21/07/2012 20:30 22,1 C 49 % 1022,1 hPa 0,0 mm 0,7 km/h (0 Bft) NE 45 0 min 0 W/m 10,9 C 22,1 C 3,6 km/h (1 Bft)
21/07/2012 20:40 21,5 C 50 % 1022,1 hPa 0,0 mm 0,0 km/h (0 Bft) NE 45 0 min 0 W/m 10,6 C 21,5 C 0,0 km/h (0 Bft)
21/07/2012 20:50 21,0 C 51 % 1022,1 hPa 0,0 mm 0,0 km/h (0 Bft) NE 45 0 min 0 W/m 10,5 C 21,0 C 0,0 km/h (0 Bft)
21/07/2012 21:00 20,5 C 52 % 1022,1 hPa 0,0 mm 0,0 km/h (0 Bft) NE 45 0 min 0 W/m 10,3 C 20,5 C 0,0 km/h (0 Bft)
21/07/2012 21:10 20,0 C 54 % 1022,1 hPa 0,0 mm 0,0 km/h (0 Bft) NE 45 0 min 0 W/m 10,4 C 20,0 C 0,0 km/h (0 Bft)
21/07/2012 21:20 19,5 C 55 % 1022,2 hPa 0,0 mm 0,0 km/h (0 Bft) NE 45 0 min 0 W/m 10,2 C 19,5 C 0,0 km/h (0 Bft)
21/07/2012 21:30 18,9 C 57 % 1022,3 hPa 0,0 mm 0,0 km/h (0 Bft) NE 45 0 min 0 W/m 10,2 C 18,9 C 0,0 km/h (0 Bft)
21/07/2012 21:40 18,3 C 57 % 1022,3 hPa 0,0 mm 0,0 km/h (0 Bft) NE 45 0 min 0 W/m 9,6 C 18,3 C 0,0 km/h (0 Bft)
21/07/2012 21:50 17,8 C 59 % 1022,4 hPa 0,0 mm 0,0 km/h (0 Bft) NE 45 0 min 0 W/m 9,7 C 17,8 C 0,0 km/h (0 Bft)
21/07/2012 22:00 17,3 C 61 % 1022,5 hPa 0,0 mm 0,0 km/h (0 Bft) NE 45 0 min 0 W/m 9,7 C 17,3 C 0,0 km/h (0 Bft)
21/07/2012 22:10 16,8 C 62 % 1022,7 hPa 0,0 mm 0,0 km/h (0 Bft) NE 45 0 min 0 W/m 9,5 C 16,8 C 0,0 km/h (0 Bft)
21/07/2012 22:20 16,3 C 63 % 1022,7 hPa 0,0 mm 0,0 km/h (0 Bft) NE 45 0 min 0 W/m 9,2 C 16,3 C 0,0 km/h (0 Bft)
21/07/2012 22:30 15,8 C 64 % 1022,8 hPa 0,0 mm 0,0 km/h (0 Bft) NE 45 0 min 0 W/m 9,0 C 15,8 C 0,0 km/h (0 Bft)
21/07/2012 22:40 15,4 C 66 % 1023,0 hPa 0,0 mm 0,0 km/h (0 Bft) NE 45 0 min 0 W/m 9,1 C 15,4 C 0,0 km/h (0 Bft)
21/07/2012 22:50 15,1 C 67 % 1023,0 hPa 0,0 mm 0,0 km/h (0 Bft) NE 45 0 min 0 W/m 9,0 C 15,1 C 0,0 km/h (0 Bft)
21/07/2012 23:00 14,7 C 68 % 1023,1 hPa 0,0 mm 0,0 km/h (0 Bft) NE 45 0 min 0 W/m 8,9 C 14,7 C 0,0 km/h (0 Bft)
21/07/2012 23:10 14,4 C 70 % 1023,2 hPa 0,0 mm 0,0 km/h (0 Bft) NE 45 0 min 0 W/m 9,0 C 14,4 C 0,0 km/h (0 Bft)
21/07/2012 23:20 14,3 C 71 % 1023,3 hPa 0,0 mm 0,0 km/h (0 Bft) NE 45 0 min 0 W/m 9,1 C 14,3 C 0,0 km/h (0 Bft)
21/07/2012 23:30 14,2 C 71 % 1023,3 hPa 0,0 mm 0,0 km/h (0 Bft) NE 45 0 min 0 W/m 9,0 C 14,2 C 0,0 km/h (0 Bft)
21/07/2012 23:40 14,1 C 72 % 1023,2 hPa 0,0 mm 0,0 km/h (0 Bft) NE 45 0 min 0 W/m 9,1 C 14,1 C 0,0 km/h (0 Bft)
21/07/2012 23:50 14,0 C 73 % 1023,3 hPa 0,0 mm 0,0 km/h (0 Bft) NE 45 0 min 0 W/m 9,2 C 14,0 C 0,0 km/h (0 Bft)
_ Min-Heure 07:10 17:50 04:00 - 23:50 - - - - 07:10 07:10 23:50
Minimum _ 9,6 C 41 % 1019,4 hPa - 0,0 km/h (0 Bft) - - - - 8,2 C 9,6 C 0,0 km/h (0 Bft)
_ Max-Heure 18:00 10:00 23:50 10:10 17:50 - - 23:50 23:50 10:20 18:00 15:00
Maximum _ 25,3 C 94 % 1023,3 hPa 0,1 mm 10,1 km/h
N-NE (2 Bft)
- - 0 min 0 W/m 15,5 C 25,3 C 14,8 km/h
N-NE (3 Bft)
Moyenne _ 17,4 C 70 % 1021,2 hPa #0,1 mm 1,4 km/h (1 Bft) E - #0 min. 0 W/m 11,1 C 17,4 C 2,7 km/h (1 Bft)
Saint Bonnet de Bellac- Haute Vienne - France